Regional Weather Roundup
Issued by NWS

Home | Current Version | Previous Version | Text Only | Print | Product List | Glossary On
Versions: 1 2 3 4 5 6 7 8 9 10 11 12 13 14 15 16 17 18 19 20 21 22 23 24 25 26 27 28 29 30 31 32 33 34 35 36 37 38 39 40 41 42 43 44 45 46 47 48 49 50
000
ASUS43 KMKX 012159
RWRWI

WISCONSIN REGIONAL WEATHER ROUNDUP
NATIONAL WEATHER SERVICE MILWAUKEE/SULLIVAN WI
400 PM CST SUN FEB 01 2015

NOTE: "FAIR" INDICATES FEW OR NO CLOUDS BELOW 12,000 FEET WITH NO
SIGNIFICANT WEATHER AND/OR OBSTRUCTIONS TO VISIBILITY.

WIZ001-002-006>008-014>016-023>028-012300-
NORTHWEST WISCONSIN

CITY           SKY/WX    TMP DP  RH WIND       PRES   REMARKS
SUPERIOR ARPT  CLEAR     11  -6  44 E7        30.32F WCI   1
ASHLAND        CLOUDY    10   1  67 N15       30.28F WCI  -7
HAYWARD        PTCLDY    11   0  61 N13       30.21F WCI  -4
SIREN          PTSUNNY   14   2  60 NE16G22   30.24S WCI  -2
CUMBERLAND     PTSUNNY   12   0  57 NE17      30.17F WCI  -5
RICE LAKE      PTSUNNY   13   3  62 N18       30.19S WCI  -4
CHETEK         PTSUNNY   15   2  56 N8G17     30.17S WCI   4
LADYSMITH      MOCLDY    15   1  55 N20       30.16S WCI  -2
EAU CLAIRE     CLOUDY    15  -1  49 NE10      30.15S WCI   2
MENOMONIE      CLOUDY    17   2  50 N10       30.17R WCI   5
NEW RICHMOND   PTSUNNY   15   3  59 N16       30.20R WCI  -1
OSCEOLA        MOSUNNY   16   2  54 N10       30.25S WCI   3
$$

WIZ003>005-009-010-017-018-012300-
NORTH CENTRAL WISCONSIN

CITY           SKY/WX    TMP DP  RH WIND       PRES   REMARKS
MANITOWISH WTR MOCLDY     9  -2  61 NE10G17   30.13F WCI  -6
ARBOR VITAE    CLOUDY    11   0  61 N12G18    30.13S WCI  -3
WOODRUFF       CLOUDY    11   0  61 N12G18    30.13S WCI  -3
RHINELANDER    CLOUDY    10  -2  58 N12G18    30.10F WCI  -5
EAGLE RIVER    CLOUDY    10  -2  58 N15G21    30.11S WCI  -7
LAND O LAKES   CLOUDY     9   0  67 NE12      30.13F WCI  -5
PHILLIPS       PTCLDY    11  -1  57 N14G24    30.13S WCI  -5
TOMAHAWK       CLOUDY    11  -1  58 N13       30.11F WCI  -4
MEDFORD        CLOUDY    11   0  60 N16G23    30.08S WCI  -6
MERRILL        CLOUDY    13   0  55 NE14G20   30.10S WCI  -2
$$

WIZ029-030-035-036-043>047-012300-
CENTRAL WISCONSIN

CITY           SKY/WX    TMP DP  RH WIND       PRES   REMARKS
WAUSAU         CLOUDY    13   1  59 NE14G21   30.08S WCI  -2
MOSINEE        NOT AVBL
MARSHFIELD     CLOUDY    14   1  56 NE18G25   30.08S WCI  -3
STEVENS POINT  CLOUDY    11  -1  57 NE17G24   30.08S WCI  -6
WAUPACA        CLOUDY    13  -2  52 N15       30.09F WCI  -3
WAUTOMA        NOT AVBL
WISC RAPIDS    CLOUDY    13  -2  51 NE16G26   30.09S WCI  -3
CAMP DOUGLAS   FLURRIES  12   9  85 N9G17     30.07S WCI   0
$$

WIZ011>013-019>022-031-037>040-048>050-012300-
NORTHEAST WISCONSIN

CITY           SKY/WX    TMP DP  RH WIND       PRES   REMARKS
ANTIGO         CLOUDY    10   2  69 NE17      30.07F WCI  -8
SHAWANO        CLOUDY    13   0  55 NE17G23   30.13F WCI  -4
OCONTO         CLOUDY     9  -1  65 NE12G17   30.15F WCI  -6
STURGEON BAY   CLOUDY     7  -2  66 N14       30.13S WCI -10
GREEN BAY      CLOUDY     9  -2  61 NE23G39   30.10F WCI -11
MANITOWOC      SNOW      16  14  93 NE13G30   30.03F VSB 1/2 WCI   2
APPLETON       LGT SNOW   9   0  66 NE23G33   30.06F WCI -12
CLINTONVILLE   CLOUDY    12   0  57 NE16G23   30.11S WCI  -4
OSHKOSH        SNOW       8   3  80 N29       30.05S VSB 1/2 WCI -15
$$

WIZ032>034-041-042-053>061-012300-
SOUTHWEST WISCONSIN

CITY           SKY/WX    TMP DP  RH WIND       PRES   REMARKS
LA CROSSE      LGT SNOW  16   7  67 N10G23    30.11S WCI   4
SPARTA         LGT SNOW  14   8  77 N12G18    30.09S WCI   1
VIROQUA        CLOUDY    13   8  83 N21       30.00R WCI  -6
BOSCOBEL       LGT SNOW  15   8  73 NE14G25   30.03R VSB 1   WCI   0
PRAIRIE DU CHI MIX PCPN  16   8  71 N13       30.02R WCI   3
PLATTEVILLE    CLOUDY    15  11  86 N30G36    29.91R VSB 3/4 WCI  -6
$$

WIZ056-057-062-063-064-067-068-012300-
SOUTH CENTRAL WISCONSIN

CITY           SKY/WX    TMP DP  RH WIND       PRES   REMARKS
REEDSBURG      LGT SNOW  11   6  79 NE18G24   30.03R WCI  -7
BARABOO/DELLS  LGT SNOW  11   6  81 NE18G24   30.01R WCI  -7
LONE ROCK      NOT AVBL
MINERAL POINT  LGT SNOW  16  10  79 NE23G33   29.90R VSB 3/4 WCI  -2
MADISON        SNOW      12   7  80 NE25G37   29.96R VSB 1/4 WCI  -8
MIDDLETON      CLOUDY    14   9  81 NE25G31   29.96R VSB 1/2 WCI  -5
WATERTOWN      LGT SNOW  11   8  88 N17G29    29.92F VSB 1   WCI  -6
MONROE         SNOW      14  12  92 N32G41    29.85R VSB 1/2 WCI  -7
JANESVILLE     SNOW      16  10  79 N20G29    29.85S VSB 1/2 WCI  -1
$$

WIZ051-052-058>065-066-070>072-012300-
SOUTHEAST WISCONSIN

CITY           SKY/WX    TMP DP  RH WIND       PRES   REMARKS
MILWAUKEE      SNOW      21  17  84 NE28G39   29.88F VSB 1/8 WCI   3
WAUKESHA       SNOW      18  16  93 NE12G35   29.90S VSB 1/2 WCI   5
MILWAUKEE/TIMM LGT SNOW  21  16  79 NE20G36   29.91F VSB 3/4 WCI   6
RACINE         SNOW      21  17  84 NE30G39   29.88F VSB 1/4 WCI   3
BURLINGTON     LGT SNOW  20  16  86 NE22G29   29.85F WCI   3
KENOSHA        HVY SNOW  21  18  88 NE24G33   29.85S VSB 1/4 WCI   4
FOND DU LAC    FOG        8   4  83 N28G35    30.04R VSB 1/4 WCI -14
SHEBOYGAN      HVY SNOW  17  14  88 NE24G33   29.97F VSB 1/4 WCI  -1
WEST BEND      LGT SNOW  18  14  86 NE14G23   29.94S VSB 1   WCI   4
JUNEAU         SNOW       8   5  85 N24G32    29.96S VSB 1/4 WCI -13
$$

LSZ147-162-012300-
LAKE SUPERIOR

STATION/POSITION TIME  TEMP    WIND        PRES    WAVE
                       AIR SEA DIR/SP/G            HT/PER
                 (UTC) (F)     (DEG/KT/KT) (MB)    (FT/S)
DEVILS ISLAND    2100    9      50/ 11/ 13 1028.5F
PORT WING        2140   12      50/ 12/ 16 1026.4F
SAXON HARBOR     2100   14      30/ 17/ 23 1025.1S
$$

LMZ867-665-643>646-012300-
LAKE MICHIGAN

STATION/POSITION TIME  TEMP    WIND        PRES    WAVE
                       AIR SEA DIR/SP/G            HT/PER
                 (UTC) (F)     (DEG/KT/KT) (MB)    (FT/S)
NORTHPORT PIER   2100    9      20/ 15/ 21 1022.0F
SISTER BAY       2113    9      20/ 13/ 21   N/A
KEWAUNEE LAKESHO 2100   16      30/ 27/ 35 1017.7F
SHEBOYGAN LAKESH 2100   20      40/ 33/ 37 1016.8F
PORT WASHINGTON  2122   22      30/ 26/ 35 1014.9F
MILWAUKEE LAKESH 2100   23      40/ 31/ 36   N/A
KENOSHA   LAKESH 2100   23      30/ 30/ 38 1010.8F
$$

TC  - TEMPERATURE IN CELSIUS
VSB - VISIBILITY IN STATUTE MILES
WCI - WIND CHILL INDEX
HX  - HEAT INDEX



USA.gov is the U.S. government's official web portal to all federal, state and local government web resources and services.